Cedar City, UT

9:27 PM MST on January 19, 2018 (GMT -0700)
Cedar City Regional

Weather History for KCDC - October, 2013

Change the Weather History Date:

Thursday, October 31, 2013

  Actual Average Record
Temperature  
Mean Temperature 38 °F 44 °F  
Max Temperature 53 °F 59 °F 73 °F (1965)
Min Temperature 23 °F 29 °F 5 °F (1991)
Degree Days  
Heating Degree Days 27 21  
Month to date heating degree days 586 476  
Since 1 July heating degree days 754 619  
Cooling Degree Days 0 0  
Month to date cooling degree days 0 0  
Year to date cooling degree days 667 588  
Moisture  
Dew Point 25 °F    
Average Humidity 58    
Maximum Humidity 88    
Minimum Humidity 28    
Precipitation  
Precipitation 0.00 in 0.05 in 0.39 in (1957)
Month to date precipitation 0.47 1.34  
Year to date precipitation 13.51 9.54  
Sea Level Pressure  
Sea Level Pressure 30.16 in    
Wind  
Wind Speed 3 mph (NE)    
Max Wind Speed 12 mph    
Max Gust Speed 17 mph    
Visibility 10 miles    
Events      
T = Trace of Precipitation, MM = Missing Value Source: NWS Daily Summary

Daily Weather History Graph

Daily Weather History Graph

Search for Another Location

Airport or City:

Trip Planner

Search our weather history database for the weather conditions in past years. The results will help you decide how hot, cold, wet, or windy it might be!

Date:

Astronomy

Oct. 31, 2013 Rise Set
Actual Time 7:56 AM MDT 6:34 PM MDT
Civil Twilight 7:29 AM MDT 7:01 PM MDT
Nautical Twilight 6:58 AM MDT 7:32 PM MDT
Astronomical Twilight 6:28 AM MDT 8:03 PM MDT
Moon 4:53 AM MDT (10/31) 4:52 PM MDT (10/31)
Length of Visible Light 11h 31m
Length of Day
10h 37m
Waning Crescent, 9% of the Moon is Illuminated
Oct 31
Waning Crescent
Nov 3
New
Nov 9
First Quarter
Nov 17
Full
Nov 25
Last Quarter

Hourly Weather History & Observations

Time (MDT) Temp. Windchill Dew Point Humidity Pressure Visibility Wind Dir Wind Speed Gust Speed Precip Events Conditions
12:53 AM 35.1 °F 30.1 °F 27.0 °F 72% 30.07 in 10.0 mi SE 5.8 mph - N/A   Clear
1:53 AM 34.0 °F 28.0 °F 27.0 °F 75% 30.08 in 10.0 mi SE 6.9 mph - N/A   Clear
2:53 AM 28.9 °F 25.2 °F 24.1 °F 82% 30.11 in 10.0 mi NNE 3.5 mph - N/A   Clear
3:53 AM 28.9 °F - 24.1 °F 82% 30.10 in 10.0 mi Calm Calm - N/A   Clear
4:53 AM 28.0 °F 22.8 °F 24.1 °F 85% 30.11 in 10.0 mi ENE 4.6 mph - N/A   Clear
5:53 AM 24.1 °F - 21.0 °F 88% 30.12 in 10.0 mi Calm Calm - N/A   Clear
6:53 AM 27.0 °F - 23.0 °F 85% 30.14 in 10.0 mi Calm Calm - N/A   Clear
7:53 AM 25.0 °F 19.3 °F 21.9 °F 88% 30.19 in 10.0 mi NNE 4.6 mph - N/A   Clear
8:53 AM 28.0 °F 24.2 °F 24.1 °F 85% 30.20 in 10.0 mi NNW 3.5 mph - N/A   Clear
9:53 AM 34.0 °F - 27.0 °F 75% 30.21 in 10.0 mi Calm Calm - N/A   Clear
10:53 AM 39.9 °F - 28.0 °F 63% 30.19 in 10.0 mi Calm Calm - N/A   Clear
11:53 AM 44.1 °F 42.5 °F 28.0 °F 53% 30.18 in 10.0 mi North 3.5 mph - N/A   Clear
12:53 PM 46.9 °F - 28.0 °F 48% 30.18 in 10.0 mi Calm Calm - N/A   Clear
1:53 PM 48.9 °F - 26.1 °F 41% 30.15 in 10.0 mi Variable 3.5 mph - N/A   Clear
2:53 PM 51.1 °F - 25.0 °F 36% 30.14 in 10.0 mi Variable 3.5 mph - N/A   Clear
3:53 PM 52.0 °F - 24.1 °F 34% 30.14 in 10.0 mi NW 9.2 mph - N/A   Clear
4:53 PM 53.1 °F - 21.9 °F 30% 30.13 in 10.0 mi Variable 3.5 mph - N/A   Clear
5:53 PM 51.1 °F - 24.1 °F 35% 30.14 in 10.0 mi North 4.6 mph - N/A   Clear
6:53 PM 44.1 °F 41.5 °F 24.1 °F 45% 30.17 in 10.0 mi North 4.6 mph - N/A   Clear
7:53 PM 39.9 °F 37.8 °F 26.1 °F 58% 30.20 in 10.0 mi SE 3.5 mph - N/A   Clear
8:53 PM 39.0 °F 34.8 °F 27.0 °F 62% 30.20 in 10.0 mi SE 5.8 mph - N/A   Clear
9:53 PM 36.0 °F 30.3 °F 26.1 °F 67% 30.21 in 10.0 mi SE 6.9 mph - N/A   Clear
10:53 PM 36.0 °F - 26.1 °F 67% 30.20 in 10.0 mi Calm Calm - N/A   Clear
11:53 PM 30.0 °F - 24.1 °F 79% 30.22 in 10.0 mi Calm Calm - N/A   Clear